RYR185 LPPT-GMAD

Flight info

Callsign RYR185
Flight time 1h 25m
Altitude 39000
Route BEVOP DCT TAKAV DCT ESS UR724 ADM G850 BULOK
Aircraft B738/M-SDE3FGILRWY/SB1

Departure

Time 2026-05-04 16:56
Airport Lisbon Humberto Delgado Airport (LPPT)

Arrival

Time 2026-05-04 18:21
Airport Al Massira Airport (GMAD)
Time Latitude Longitude Altitude Speed Heading
2026-05-04 16:13 38.76473 -9.13637 350 ft 0 kts 168°
2026-05-04 16:47 38.76492 -9.13642 360 ft 3 kts 172°
2026-05-04 16:47 38.76539 -9.13642 359 ft 3 kts 200°
2026-05-04 16:48 38.76557 -9.13623 355 ft 0 kts 258°
2026-05-04 16:50 38.76555 -9.13639 358 ft 7 kts 258°
2026-05-04 16:51 38.76520 -9.13855 350 ft 13 kts 258°
2026-05-04 16:51 38.76560 -9.13943 357 ft 13 kts 330°
2026-05-04 16:51 38.76495 -9.14130 356 ft 12 kts 258°
2026-05-04 16:52 38.76539 -9.14306 352 ft 0 kts 293°
2026-05-04 16:55 38.76646 -9.14389 350 ft 10 kts 24°
2026-05-04 16:55 38.77383 -9.13994 360 ft 118 kts 23°
2026-05-04 16:56 38.79267 -9.12936 1138 ft 160 kts 21°
2026-05-04 16:56 38.82529 -9.10824 2483 ft 203 kts 21°
2026-05-04 16:57 38.83770 -9.09962 3046 ft 204 kts 24°
2026-05-04 16:57 38.86397 -9.07979 3763 ft 242 kts 29°
2026-05-04 16:58 38.87839 -9.01678 5739 ft 275 kts 111°
2026-05-04 16:58 38.86987 -8.99489 6514 ft 279 kts 120°
2026-05-04 16:59 38.83892 -8.96675 7816 ft 285 kts 177°
2026-05-04 17:00 38.76388 -8.99857 10530 ft 302 kts 207°
2026-05-04 17:00 38.69996 -9.03381 11625 ft 351 kts 206°
2026-05-04 17:01 38.65449 -9.05823 13184 ft 356 kts 207°
2026-05-04 17:01 38.60838 -9.08287 14665 ft 363 kts 207°
2026-05-04 17:02 38.56136 -9.10795 16170 ft 369 kts 207°
2026-05-04 17:02 38.51400 -9.13317 17723 ft 372 kts 208°
2026-05-04 17:03 38.49001 -9.14594 18445 ft 375 kts 208°
2026-05-04 17:03 38.46579 -9.15883 19068 ft 378 kts 208°
2026-05-04 17:03 38.41684 -9.18470 20302 ft 385 kts 206°
2026-05-04 17:04 38.36473 -9.20500 21523 ft 395 kts 201°
2026-05-04 17:04 38.31140 -9.22309 22657 ft 401 kts 201°
2026-05-04 17:05 38.25699 -9.24214 23730 ft 407 kts 202°
2026-05-04 17:05 38.20200 -9.26186 24622 ft 413 kts 202°
2026-05-04 17:06 38.14662 -9.28183 25476 ft 419 kts 202°
2026-05-04 17:06 38.11850 -9.29195 25896 ft 422 kts 202°
2026-05-04 17:07 38.06160 -9.31241 26724 ft 427 kts 202°
2026-05-04 17:07 38.04249 -9.31927 26992 ft 429 kts 202°
2026-05-04 17:07 38.00388 -9.33309 27512 ft 433 kts 202°
2026-05-04 17:07 37.97428 -9.34051 27864 ft 443 kts 194°
2026-05-04 17:08 37.94342 -9.34467 28248 ft 448 kts 192°
2026-05-04 17:08 37.88070 -9.35126 28955 ft 454 kts 192°
2026-05-04 17:08 37.84940 -9.35479 29292 ft 456 kts 193°
2026-05-04 17:09 37.81763 -9.35868 29613 ft 459 kts 193°
2026-05-04 17:09 37.78573 -9.36265 29928 ft 463 kts 191°
2026-05-04 17:09 37.75317 -9.36443 30194 ft 470 kts 188°
2026-05-04 17:10 37.68733 -9.36433 30833 ft 473 kts 186°
2026-05-04 17:10 37.58983 -9.36336 32114 ft 466 kts 187°
2026-05-04 17:11 37.55741 -9.36338 32438 ft 465 kts 187°
2026-05-04 17:11 37.52493 -9.36349 32863 ft 463 kts 188°
2026-05-04 17:11 37.46108 -9.36385 33651 ft 460 kts 188°
2026-05-04 17:12 37.42903 -9.36405 34000 ft 459 kts 188°
2026-05-04 17:12 37.36514 -9.36443 34687 ft 456 kts 188°
2026-05-04 17:13 37.27074 -9.36495 35660 ft 451 kts 188°
2026-05-04 17:14 37.17669 -9.36548 36530 ft 448 kts 188°
2026-05-04 17:14 37.14559 -9.36564 36846 ft 446 kts 188°
2026-05-04 17:14 37.08354 -9.36598 37418 ft 443 kts 188°
2026-05-04 17:15 37.05326 -9.36612 37817 ft 439 kts 188°
2026-05-04 17:15 36.99224 -9.36646 38291 ft 438 kts 188°
2026-05-04 17:16 36.93119 -9.36682 38769 ft 437 kts 188°
2026-05-04 17:16 36.84027 -9.36734 39087 ft 439 kts 189°
2026-05-04 17:17 36.80972 -9.36751 39101 ft 438 kts 189°
2026-05-04 17:18 36.68861 -9.36811 39106 ft 431 kts 189°
2026-05-04 17:19 36.56951 -9.36876 39097 ft 427 kts 189°
2026-05-04 17:20 36.45105 -9.36942 39115 ft 426 kts 189°
2026-05-04 17:20 36.36195 -9.36992 39091 ft 428 kts 189°
2026-05-04 17:21 36.24253 -9.37056 39112 ft 431 kts 189°
2026-05-04 17:22 36.18235 -9.37088 39110 ft 433 kts 189°
2026-05-04 17:23 36.06183 -9.37151 39101 ft 434 kts 190°
2026-05-04 17:24 35.97146 -9.37199 39113 ft 434 kts 190°
2026-05-04 17:25 35.85155 -9.37973 39103 ft 428 kts 193°
2026-05-04 17:26 35.73306 -9.38892 39113 ft 427 kts 193°
2026-05-04 17:27 35.58540 -9.39962 39118 ft 424 kts 193°
2026-05-04 17:28 35.46779 -9.40809 39115 ft 423 kts 193°
2026-05-04 17:29 35.29169 -9.42073 39113 ft 423 kts 193°
2026-05-04 17:31 35.14440 -9.43128 39116 ft 425 kts 193°
2026-05-04 17:32 34.99679 -9.44179 39117 ft 426 kts 193°
2026-05-04 17:33 34.87850 -9.45019 39088 ft 427 kts 193°
2026-05-04 17:34 34.75967 -9.45858 39110 ft 427 kts 193°
2026-05-04 17:35 34.61184 -9.46900 39082 ft 425 kts 192°
2026-05-04 17:36 34.55311 -9.47313 39098 ft 424 kts 192°
2026-05-04 17:36 34.49426 -9.47726 39107 ft 422 kts 192°
2026-05-04 17:37 34.43560 -9.48138 39108 ft 421 kts 193°
2026-05-04 17:37 34.37714 -9.48548 39105 ft 420 kts 193°
2026-05-04 17:38 34.31912 -9.48954 39099 ft 419 kts 192°
2026-05-04 17:38 34.26085 -9.49362 39104 ft 418 kts 192°
2026-05-04 17:39 34.17342 -9.49973 39107 ft 419 kts 192°
2026-05-04 17:39 34.11549 -9.50377 39107 ft 419 kts 192°
2026-05-04 17:40 34.05711 -9.50783 39100 ft 420 kts 192°
2026-05-04 17:40 33.99858 -9.51190 39105 ft 421 kts 192°
2026-05-04 17:41 33.94022 -9.51595 39105 ft 422 kts 192°
2026-05-04 17:41 33.88134 -9.52003 39104 ft 423 kts 192°
2026-05-04 17:42 33.82265 -9.52409 39085 ft 424 kts 192°
2026-05-04 17:42 33.77357 -9.52748 39092 ft 425 kts 192°
2026-05-04 17:43 33.71427 -9.53157 39102 ft 425 kts 192°
2026-05-04 17:43 33.65533 -9.53563 39100 ft 426 kts 192°
2026-05-04 17:44 33.59595 -9.53971 39100 ft 427 kts 192°
2026-05-04 17:44 33.53692 -9.54376 39095 ft 426 kts 192°
2026-05-04 17:45 33.47761 -9.54782 39095 ft 426 kts 192°
2026-05-04 17:45 33.41834 -9.55188 39097 ft 426 kts 192°
2026-05-04 17:46 33.35918 -9.55593 39094 ft 425 kts 192°
2026-05-04 17:46 33.30038 -9.55994 39065 ft 424 kts 193°
2026-05-04 17:47 33.24141 -9.56396 39084 ft 423 kts 193°
2026-05-04 17:47 33.18251 -9.56797 39103 ft 423 kts 193°
2026-05-04 17:48 33.12382 -9.57197 39093 ft 422 kts 193°
2026-05-04 17:48 33.06547 -9.57594 39089 ft 422 kts 193°
2026-05-04 17:49 33.00705 -9.57991 39095 ft 421 kts 193°
2026-05-04 17:49 32.94833 -9.58389 39085 ft 421 kts 193°
2026-05-04 17:50 32.88964 -9.58787 39081 ft 421 kts 193°
2026-05-04 17:50 32.83143 -9.59180 39082 ft 421 kts 193°
2026-05-04 17:51 32.77275 -9.59577 39059 ft 422 kts 193°
2026-05-04 17:51 32.71414 -9.59972 39074 ft 422 kts 193°
2026-05-04 17:52 32.65543 -9.60367 39077 ft 422 kts 193°
2026-05-04 17:52 32.59712 -9.60760 39076 ft 422 kts 193°
2026-05-04 17:53 32.53828 -9.61155 39073 ft 423 kts 193°
2026-05-04 17:53 32.47946 -9.61549 39068 ft 423 kts 193°
2026-05-04 17:54 32.42086 -9.61941 39064 ft 423 kts 193°
2026-05-04 17:54 32.36196 -9.62335 39069 ft 423 kts 193°
2026-05-04 17:55 32.30309 -9.62729 39064 ft 423 kts 193°
2026-05-04 17:55 32.24441 -9.63120 39020 ft 423 kts 193°
2026-05-04 17:56 32.18558 -9.63511 39043 ft 423 kts 193°
2026-05-04 17:56 32.12722 -9.63900 39042 ft 422 kts 193°
2026-05-04 17:57 32.06844 -9.64291 39039 ft 422 kts 193°
2026-05-04 17:57 32.00967 -9.64681 39036 ft 422 kts 193°
2026-05-04 17:58 31.95145 -9.65067 39033 ft 421 kts 193°
2026-05-04 17:58 31.89280 -9.65455 39026 ft 421 kts 193°
2026-05-04 17:59 31.83424 -9.65842 39031 ft 420 kts 193°
2026-05-04 18:00 31.74680 -9.66420 39024 ft 420 kts 193°
2026-05-04 18:00 31.68832 -9.66806 38994 ft 420 kts 193°
2026-05-04 18:01 31.63036 -9.67187 39020 ft 420 kts 193°
2026-05-04 18:01 31.57186 -9.67572 39018 ft 420 kts 193°
2026-05-04 18:02 31.48467 -9.68143 38944 ft 414 kts 193°
2026-05-04 18:02 31.45598 -9.68327 38528 ft 410 kts 194°
2026-05-04 18:02 31.42743 -9.68516 37750 ft 413 kts 193°
2026-05-04 18:03 31.39816 -9.68488 36929 ft 429 kts 186°
2026-05-04 18:03 31.36812 -9.67906 36125 ft 446 kts 177°
2026-05-04 18:03 31.33777 -9.67044 35371 ft 451 kts 176°
2026-05-04 18:03 31.30721 -9.66146 34694 ft 454 kts 176°
2026-05-04 18:04 31.27701 -9.65260 34214 ft 451 kts 176°
2026-05-04 18:04 31.24663 -9.64382 33783 ft 445 kts 177°
2026-05-04 18:04 31.18681 -9.62695 32833 ft 438 kts 176°
2026-05-04 18:05 31.15727 -9.61875 32312 ft 435 kts 176°
2026-05-04 18:05 31.12782 -9.61057 31835 ft 434 kts 176°
2026-05-04 18:05 31.09852 -9.60243 31364 ft 431 kts 176°
2026-05-04 18:05 31.06927 -9.59432 30733 ft 433 kts 175°
2026-05-04 18:06 31.01083 -9.57791 29487 ft 435 kts 174°
2026-05-04 18:06 30.98133 -9.56942 28798 ft 435 kts 174°
2026-05-04 18:06 30.95197 -9.56092 28133 ft 431 kts 174°
2026-05-04 18:07 30.92305 -9.55254 27360 ft 425 kts 174°
2026-05-04 18:07 30.89453 -9.54432 26589 ft 419 kts 173°
2026-05-04 18:07 30.86633 -9.53622 25723 ft 417 kts 174°
2026-05-04 18:07 30.83815 -9.52818 24903 ft 415 kts 174°
2026-05-04 18:08 30.81048 -9.52028 24098 ft 413 kts 173°
2026-05-04 18:08 30.78261 -9.51232 23277 ft 411 kts 173°
2026-05-04 18:08 30.75489 -9.50439 22349 ft 408 kts 173°
2026-05-04 18:08 30.72744 -9.49656 21466 ft 404 kts 173°
2026-05-04 18:09 30.67303 -9.48129 19758 ft 398 kts 172°
2026-05-04 18:09 30.61984 -9.46646 18148 ft 391 kts 172°
2026-05-04 18:10 30.59343 -9.45901 17212 ft 389 kts 170°
2026-05-04 18:10 30.56874 -9.44581 16311 ft 401 kts 146°
2026-05-04 18:10 30.55042 -9.42137 15524 ft 407 kts 121°
2026-05-04 18:10 30.54207 -9.39010 14658 ft 408 kts 94°
2026-05-04 18:11 30.54535 -9.35821 13872 ft 402 kts 69°
2026-05-04 18:11 30.55844 -9.32998 13020 ft 393 kts 57°
2026-05-04 18:11 30.56821 -9.30056 12060 ft 395 kts 82°
2026-05-04 18:11 30.56613 -9.26915 11256 ft 390 kts 108°
2026-05-04 18:12 30.55318 -9.24200 10400 ft 383 kts 134°
2026-05-04 18:12 30.53389 -9.22108 9611 ft 376 kts 141°
2026-05-04 18:12 30.51523 -9.20052 8725 ft 375 kts 135°
2026-05-04 18:12 30.49750 -9.17834 8158 ft 363 kts 135°
2026-05-04 18:13 30.47991 -9.15860 7661 ft 350 kts 140°
2026-05-04 18:13 30.46102 -9.14148 7171 ft 339 kts 147°
2026-05-04 18:13 30.42064 -9.11643 6207 ft 321 kts 159°
2026-05-04 18:14 30.39990 -9.10774 5703 ft 313 kts 164°
2026-05-04 18:14 30.37905 -9.10118 5205 ft 307 kts 171°
2026-05-04 18:14 30.35829 -9.09673 4736 ft 301 kts 174°
2026-05-04 18:15 30.31946 -9.10232 3903 ft 265 kts 225°
2026-05-04 18:15 30.30958 -9.13789 3596 ft 229 kts 285°
2026-05-04 18:15 30.31274 -9.15535 3417 ft 220 kts 280°
2026-05-04 18:16 30.31485 -9.17255 3220 ft 211 kts 277°
2026-05-04 18:16 30.31592 -9.18917 3045 ft 201 kts 274°
2026-05-04 18:16 30.31645 -9.20477 2994 ft 186 kts 274°
2026-05-04 18:17 30.31724 -9.23215 2910 ft 163 kts 274°
2026-05-04 18:17 30.31761 -9.24520 2697 ft 162 kts 273°
2026-05-04 18:17 30.31836 -9.27093 2302 ft 157 kts 274°
2026-05-04 18:18 30.31871 -9.28316 2098 ft 151 kts 271°
2026-05-04 18:18 30.31907 -9.29522 1937 ft 149 kts 269°
2026-05-04 18:18 30.31941 -9.30731 1715 ft 149 kts 268°
2026-05-04 18:18 30.31976 -9.31937 1522 ft 148 kts 269°
2026-05-04 18:19 30.32047 -9.34230 1144 ft 142 kts 270°
2026-05-04 18:19 30.32131 -9.35339 983 ft 134 kts 261°
2026-05-04 18:19 30.32175 -9.36459 782 ft 143 kts 266°
2026-05-04 18:20 30.32215 -9.37602 604 ft 144 kts 261°
2026-05-04 18:20 30.32206 -9.38818 395 ft 152 kts 265°
2026-05-04 18:20 30.32241 -9.40002 233 ft 139 kts 266°
2026-05-04 18:20 30.32256 -9.40916 230 ft 83 kts 271°
2026-05-04 18:21 30.32267 -9.41391 230 ft 29 kts 272°
2026-05-04 18:21 30.32294 -9.41517 230 ft 14 kts 319°
2026-05-04 18:21 30.32389 -9.41529 230 ft 14 kts
2026-05-04 18:21 30.32481 -9.41525 233 ft 13 kts
2026-05-04 18:22 30.32570 -9.41521 230 ft 13 kts
2026-05-04 18:22 30.32657 -9.41518 230 ft 12 kts
2026-05-04 18:22 30.32742 -9.41515 232 ft 12 kts
2026-05-04 18:22 30.32812 -9.41478 230 ft 12 kts 64°
2026-05-04 18:23 30.32817 -9.41360 230 ft 17 kts 91°
2026-05-04 18:23 30.32814 -9.41217 230 ft 17 kts 91°
2026-05-04 18:23 30.32811 -9.41080 230 ft 17 kts 91°
2026-05-04 18:23 30.32815 -9.41008 230 ft 4 kts 48°
2026-05-04 18:24 30.32840 -9.41000 230 ft 4 kts
2026-05-04 18:24 30.32866 -9.40998 230 ft 4 kts
2026-05-04 18:24 30.32881 -9.40997 230 ft 0 kts